This is the latest recevied weather packets stored in our database for station/object IZ1UQG-1. If no packets are shown the sender has not sent any weather packets the latest 10 day(s).
| Time | Temp. | Humidity | Pressure | Rain* | Wind** | Luminosity | Snow |
|---|---|---|---|---|---|---|---|
| 1777350851 | 18.89° C | 65% | 1015.5 hPa | 37.34 mm | - | - | - |
| 1777350551 | 18.89° C | 66% | 1015.5 hPa | 8.89 mm | - | - | - |
| 1777350251 | 18.89° C | 66% | 1015.4 hPa | 28.45 mm | - | - | - |
| 1777349951 | 18.89° C | 66% | 1015.2 hPa | 233.93 mm | - | - | - |
| 1777349651 | 18.89° C | 66% | 1015.2 hPa | 221.49 mm | - | - | - |
| 1777349351 | 18.89° C | 66% | 1015 hPa | 210.06 mm | - | - | - |
| 1777349051 | 18.89° C | 66% | 1014.9 hPa | 230.12 mm | - | - | - |
| 1777348751 | 18.89° C | 65% | 1014.9 hPa | 208.03 mm | - | - | - |
| 1777348451 | 18.89° C | 65% | 1015.1 hPa | 250.95 mm | - | - | - |
| 1777348151 | 18.89° C | 65% | 1014.9 hPa | 231.14 mm | - | - | - |
| 1777347851 | 18.89° C | 65% | 1015 hPa | 222.5 mm | - | - | - |
| 1777347551 | 18.89° C | 64% | 1015.1 hPa | 210.57 mm | - | - | - |
| 1777347251 | 18.89° C | 64% | 1015.1 hPa | 241.55 mm | - | - | - |
| 1777346951 | 18.89° C | 64% | 1015.3 hPa | 250.95 mm | - | - | - |
| 1777346651 | 18.89° C | 64% | 1015.3 hPa | 234.44 mm | - | - | - |
| 1777346351 | 18.89° C | 65% | 1015.3 hPa | 232.92 mm | - | - | - |
| 1777346051 | 18.89° C | 65% | 1015.4 hPa | 19.81 mm | - | - | - |
| 1777345751 | 18.89° C | 65% | 1015.3 hPa | 3.56 mm | - | - | - |
| 1777345451 | 18.89° C | 64% | 1015.2 hPa | 205.74 mm | - | - | - |
| 1777345151 | 18.89° C | 64% | 1015.1 hPa | 176.28 mm | - | - | - |
| 1777344851 | 18.89° C | 64% | 1015.2 hPa | 230.12 mm | - | - | - |
| 1777344551 | 19.44° C | 64% | 1015.1 hPa | 214.12 mm | - | - | - |
| 1777344251 | 19.44° C | 63% | 1015 hPa | 200.15 mm | - | - | - |
| 1777343951 | 19.44° C | 63% | 1015.2 hPa | 172.21 mm | - | - | - |
| 1777343651 | 19.44° C | 63% | 1015.2 hPa | 238.51 mm | - | - | - |
* Rain latest hour (hover to see other rain measurements)
** Current wind speed in m/s (hover to see current wind gust speed)